Time,TemperatureF,DewpointF,PressureIn,WindDirection,WindDirectionDegrees,WindSpeedMPH,WindSpeedGustMPH,Humidity,HourlyPrecipIn,Conditions,Clouds,dailyrainin,SoftwareType,DateUTC
2013-07-22 00:11:00,67.0,63.0,-100.00,South,187,0.0,1.0,86,-99.99,,,-99.99,,2013-07-22 07:11:00,
2013-07-22 00:22:00,66.0,62.0,-100.00,SSW,198,1.0,2.0,86,-99.99,,,-99.99,,2013-07-22 07:22:00,
2013-07-22 00:33:00,66.0,62.0,-100.00,SSE,163,1.0,3.0,88,-99.99,,,-99.99,,2013-07-22 07:33:00,
2013-07-22 00:43:00,65.0,62.0,-100.00,SSE,151,1.0,2.0,89,-99.99,,,-99.99,,2013-07-22 07:43:00,
2013-07-22 00:52:00,65.0,62.0,-100.00,SE,125,0.0,2.0,90,-99.99,,,-99.99,,2013-07-22 07:52:00,
2013-07-22 01:11:00,65.0,62.0,-100.00,NNW,336,0.0,1.0,90,-99.99,,,-99.99,,2013-07-22 08:11:00,
2013-07-22 01:22:00,65.0,62.0,-100.00,NNW,348,3.0,3.0,90,-99.99,,,-99.99,,2013-07-22 08:22:00,
2013-07-22 01:32:00,64.0,61.0,-100.00,North,353,3.0,4.0,90,-99.99,,,-99.99,,2013-07-22 08:32:00,
2013-07-22 01:43:00,64.0,60.0,-100.00,NNW,337,4.0,6.0,88,-99.99,,,-99.99,,2013-07-22 08:43:00,
2013-07-22 01:52:00,64.0,60.0,-100.00,NNW,337,4.0,6.0,88,-99.99,,,-99.99,,2013-07-22 08:52:00,
2013-07-22 02:02:00,65.0,61.0,-100.00,NNW,338,3.0,5.0,87,-99.99,,,-99.99,,2013-07-22 09:02:00,
2013-07-22 02:22:00,64.0,60.0,-100.00,North,4,1.0,3.0,88,-99.99,,,-99.99,,2013-07-22 09:22:00,
2013-07-22 02:33:00,64.0,61.0,-100.00,ENE,71,2.0,2.0,89,-99.99,,,-99.99,,2013-07-22 09:33:00,
2013-07-22 02:52:00,65.0,62.0,-100.00,NNE,20,1.0,2.0,89,-99.99,,,-99.99,,2013-07-22 09:52:00,
2013-07-22 03:11:00,65.0,61.0,-100.00,North,351,1.0,2.0,88,-99.99,,,-99.99,,2013-07-22 10:11:00,
2013-07-22 03:22:00,66.0,62.0,-100.00,North,8,1.0,2.0,88,-99.99,,,-99.99,,2013-07-22 10:22:00,
2013-07-22 03:32:00,65.0,61.0,-100.00,SSE,168,1.0,2.0,88,-99.99,,,-99.99,,2013-07-22 10:32:00,
2013-07-22 03:43:00,65.0,61.0,-100.00,South,188,2.0,2.0,88,-99.99,,,-99.99,,2013-07-22 10:43:00,
2013-07-22 03:52:00,65.0,62.0,-100.00,SE,134,0.0,1.0,89,-99.99,,,-99.99,,2013-07-22 10:52:00,
2013-07-22 04:11:00,65.0,62.0,-100.00,SSW,205,0.0,1.0,89,-99.99,,,-99.99,,2013-07-22 11:11:00,
2013-07-22 04:32:00,65.0,62.0,-100.00,NW,317,1.0,2.0,89,-99.99,,,-99.99,,2013-07-22 11:32:00,
2013-07-22 04:52:00,65.0,62.0,-100.00,SW,218,1.0,1.0,90,-99.99,,,-99.99,,2013-07-22 11:52:00,
2013-07-22 05:11:00,64.0,61.0,-100.00,North,354,2.0,3.0,91,-99.99,,,-99.99,,2013-07-22 12:11:00,
2013-07-22 05:43:00,63.0,60.0,-100.00,North,9,2.0,3.0,91,-99.99,,,-99.99,,2013-07-22 12:43:00,
2013-07-22 05:52:00,63.0,60.0,-100.00,North,9,2.0,3.0,91,-99.99,,,-99.99,,2013-07-22 12:52:00,
2013-07-22 06:01:00,63.0,60.0,-100.00,NNE,20,1.0,2.0,91,-99.99,,,-99.99,,2013-07-22 13:01:00,
2013-07-22 06:11:00,63.0,60.0,-100.00,North,352,2.0,4.0,90,-99.99,,,-99.99,,2013-07-22 13:11:00,
2013-07-22 06:32:00,63.0,60.0,-100.00,NNE,13,3.0,4.0,90,-99.99,,,-99.99,,2013-07-22 13:32:00,
2013-07-22 06:53:00,64.0,60.0,-100.00,North,350,3.0,4.0,86,-99.99,,,-99.99,,2013-07-22 13:53:00,
2013-07-22 07:32:00,65.0,60.0,-100.00,NE,38,1.0,3.0,85,-99.99,,,-99.99,,2013-07-22 14:32:00,
2013-07-22 07:53:00,68.0,62.0,-100.00,NNE,20,0.0,1.0,81,-99.99,,,-99.99,,2013-07-22 14:53:00,
2013-07-22 08:01:00,69.0,62.0,-100.00,North,6,1.0,3.0,78,-99.99,,,-99.99,,2013-07-22 15:01:00,
2013-07-22 08:11:00,69.0,61.0,-100.00,NE,44,2.0,3.0,76,-99.99,,,-99.99,,2013-07-22 15:11:00,
2013-07-22 08:32:00,71.0,61.0,-100.00,SE,127,0.0,2.0,71,-99.99,,,-99.99,,2013-07-22 15:32:00,
2013-07-22 08:52:00,73.0,61.0,-100.00,ESE,105,1.0,3.0,67,-99.99,,,-99.99,,2013-07-22 15:52:00,
2013-07-22 09:01:00,74.0,61.0,-100.00,ENE,62,1.0,2.0,64,-99.99,,,-99.99,,2013-07-22 16:01:00,
2013-07-22 09:11:00,75.0,62.0,-100.00,SE,140,0.0,2.0,63,-99.99,,,-99.99,,2013-07-22 16:11:00,
2013-07-22 09:21:00,75.0,62.0,-100.00,SE,140,0.0,2.0,63,-99.99,,,-99.99,,2013-07-22 16:21:00,
2013-07-22 09:32:00,75.0,63.0,-100.00,SSE,164,3.0,7.0,66,-99.99,,,-99.99,,2013-07-22 16:32:00,
2013-07-22 09:52:00,75.0,63.0,-100.00,SSE,157,3.0,7.0,67,-99.99,,,-99.99,,2013-07-22 16:52:00,
2013-07-22 10:01:00,74.0,63.0,-100.00,South,188,4.0,6.0,69,-99.99,,,-99.99,,2013-07-22 17:01:00,
2013-07-22 10:11:00,74.0,63.0,-100.00,South,188,4.0,6.0,69,-99.99,,,-99.99,,2013-07-22 17:11:00,
2013-07-22 10:23:00,74.0,64.0,-100.00,South,180,6.0,9.0,71,-99.99,,,-99.99,,2013-07-22 17:23:00,
2013-07-22 10:32:00,74.0,64.0,-100.00,South,180,6.0,9.0,71,-99.99,,,-99.99,,2013-07-22 17:32:00,
2013-07-22 10:42:00,75.0,65.0,-100.00,South,175,5.0,9.0,71,-99.99,,,-99.99,,2013-07-22 17:42:00,
2013-07-22 10:52:00,74.0,65.0,-100.00,South,175,5.0,8.0,73,-99.99,,,-99.99,,2013-07-22 17:52:00,
2013-07-22 11:12:00,74.0,65.0,-100.00,South,173,6.0,8.0,73,-99.99,,,-99.99,,2013-07-22 18:12:00,
2013-07-22 11:22:00,74.0,66.0,-100.00,SSE,156,3.0,5.0,76,-99.99,,,-99.99,,2013-07-22 18:22:00,
2013-07-22 11:33:00,73.0,66.0,-100.00,East,91,4.0,6.0,80,-99.99,,,-99.99,,2013-07-22 18:33:00,
2013-07-22 11:44:00,73.0,67.0,-100.00,ESE,114,3.0,5.0,82,-99.99,,,-99.99,,2013-07-22 18:44:00,
2013-07-22 11:53:00,73.0,67.0,-100.00,ESE,114,3.0,5.0,82,-99.99,,,-99.99,,2013-07-22 18:53:00,
2013-07-22 12:02:00,73.0,65.0,-100.00,ENE,61,4.0,5.0,76,-99.99,,,-99.99,,2013-07-22 19:02:00,
2013-07-22 12:22:00,74.0,65.0,-100.00,NE,56,2.0,5.0,74,-99.99,,,-99.99,,2013-07-22 19:22:00,
2013-07-22 12:32:00,76.0,66.0,-100.00,NNW,348,1.0,2.0,72,-99.99,,,-99.99,,2013-07-22 19:32:00,
2013-07-22 12:43:00,74.0,65.0,-100.00,NNW,332,5.0,8.0,74,-99.99,,,-99.99,,2013-07-22 19:43:00,
2013-07-22 12:53:00,74.0,65.0,-100.00,NNW,332,5.0,8.0,74,-99.99,,,-99.99,,2013-07-22 19:53:00,
2013-07-22 13:32:00,73.0,65.0,-100.00,NNW,330,5.0,9.0,77,-99.99,,,-99.99,,2013-07-22 20:32:00,
2013-07-22 13:43:00,74.0,66.0,-100.00,NNW,347,8.0,12.0,76,-99.99,,,-99.99,,2013-07-22 20:43:00,
2013-07-22 13:52:00,74.0,66.0,-100.00,NNW,347,8.0,12.0,76,-99.99,,,-99.99,,2013-07-22 20:52:00,
2013-07-22 14:01:00,75.0,65.0,-100.00,North,2,8.0,12.0,72,-99.99,,,-99.99,,2013-07-22 21:01:00,
2013-07-22 14:11:00,75.0,65.0,-100.00,North,357,10.0,13.0,71,-99.99,,,-99.99,,2013-07-22 21:11:00,
2013-07-22 14:52:00,75.0,64.0,-100.00,North,357,12.0,17.0,68,-99.99,,,-99.99,,2013-07-22 21:52:00,
2013-07-22 15:01:00,77.0,64.0,-100.00,North,351,10.0,14.0,65,-99.99,,,-99.99,,2013-07-22 22:01:00,
2013-07-22 15:32:00,77.0,64.0,-100.00,North,349,9.0,14.0,64,-99.99,,,-99.99,,2013-07-22 22:32:00,
2013-07-22 15:52:00,78.0,62.0,-100.00,North,360,10.0,15.0,58,-99.99,,,-99.99,,2013-07-22 22:52:00,
2013-07-22 16:01:00,78.0,62.0,-100.00,North,360,10.0,15.0,58,-99.99,,,-99.99,,2013-07-22 23:01:00,
2013-07-22 16:11:00,79.0,62.0,-100.00,North,351,10.0,14.0,56,-99.99,,,-99.99,,2013-07-22 23:11:00,
2013-07-22 16:22:00,78.0,61.0,-100.00,North,355,9.0,14.0,56,-99.99,,,-99.99,,2013-07-22 23:22:00,
2013-07-22 16:32:00,79.0,61.0,-100.00,North,1,10.0,14.0,54,-99.99,,,-99.99,,2013-07-22 23:32:00,
2013-07-22 16:42:00,79.0,61.0,-100.00,NNE,17,10.0,15.0,54,-99.99,,,-99.99,,2013-07-22 23:42:00,
2013-07-22 16:52:00,79.0,61.0,-100.00,NNE,17,10.0,15.0,54,-99.99,,,-99.99,,2013-07-22 23:52:00,
2013-07-22 17:01:00,80.0,61.0,-100.00,NNW,345,7.0,12.0,52,-99.99,,,-99.99,,2013-07-23 00:01:00,
2013-07-22 17:11:00,80.0,61.0,-100.00,NNW,345,7.0,12.0,52,-99.99,,,-99.99,,2013-07-23 00:11:00,
2013-07-22 17:22:00,80.0,60.0,-100.00,WNW,301,4.0,15.0,51,-99.99,,,-99.99,,2013-07-23 00:22:00,
2013-07-22 17:32:00,79.0,60.0,-100.00,WNW,285,10.0,20.0,52,-99.99,,,-99.99,,2013-07-23 00:32:00,
2013-07-22 17:52:00,78.0,59.0,-100.00,WNW,288,9.0,15.0,53,-99.99,,,-99.99,,2013-07-23 00:52:00,
2013-07-22 18:01:00,78.0,59.0,-100.00,WNW,300,10.0,17.0,53,-99.99,,,-99.99,,2013-07-23 01:01:00,
2013-07-22 18:11:00,77.0,59.0,-100.00,WNW,295,9.0,16.0,54,-99.99,,,-99.99,,2013-07-23 01:11:00,
2013-07-22 18:32:00,77.0,59.0,-100.00,NW,312,8.0,13.0,54,-99.99,,,-99.99,,2013-07-23 01:32:00,
2013-07-22 18:53:00,77.0,60.0,-100.00,NW,323,8.0,13.0,55,-99.99,,,-99.99,,2013-07-23 01:53:00,
2013-07-22 19:01:00,77.0,60.0,-100.00,NNW,329,6.0,10.0,55,-99.99,,,-99.99,,2013-07-23 02:01:00,
2013-07-22 19:11:00,77.0,60.0,-100.00,NNW,329,6.0,10.0,55,-99.99,,,-99.99,,2013-07-23 02:11:00,
2013-07-22 19:33:00,75.0,59.0,-100.00,NNW,337,4.0,7.0,58,-99.99,,,-99.99,,2013-07-23 02:33:00,
2013-07-22 19:43:00,75.0,60.0,-100.00,NNW,343,4.0,6.0,59,-99.99,,,-99.99,,2013-07-23 02:43:00,
2013-07-22 19:52:00,75.0,60.0,-100.00,NNW,343,4.0,6.0,59,-99.99,,,-99.99,,2013-07-23 02:52:00,
2013-07-22 20:01:00,74.0,60.0,-100.00,NNW,337,4.0,8.0,61,-99.99,,,-99.99,,2013-07-23 03:01:00,
2013-07-22 20:11:00,73.0,59.0,-100.00,WNW,292,4.0,8.0,61,-99.99,,,-99.99,,2013-07-23 03:11:00,
2013-07-22 20:22:00,73.0,59.0,-100.00,WNW,292,4.0,8.0,61,-99.99,,,-99.99,,2013-07-23 03:22:00,
2013-07-22 20:52:00,70.0,59.0,-100.00,SSE,152,3.0,5.0,67,-99.99,,,-99.99,,2013-07-23 03:52:00,
2013-07-22 21:01:00,70.0,60.0,-100.00,East,90,0.0,2.0,70,-99.99,,,-99.99,,2013-07-23 04:01:00,
2013-07-22 21:11:00,70.0,60.0,-100.00,East,90,0.0,2.0,70,-99.99,,,-99.99,,2013-07-23 04:11:00,
2013-07-22 21:21:00,69.0,59.0,-100.00,SW,217,2.0,5.0,70,-99.99,,,-99.99,,2013-07-23 04:21:00,
2013-07-22 21:42:00,69.0,59.0,-100.00,SW,224,1.0,4.0,71,-99.99,,,-99.99,,2013-07-23 04:42:00,
2013-07-22 21:53:00,68.0,61.0,-100.00,NE,44,1.0,2.0,77,-99.99,,,-99.99,,2013-07-23 04:53:00,
2013-07-22 22:11:00,68.0,60.0,-100.00,NNW,327,0.0,2.0,76,-99.99,,,-99.99,,2013-07-23 05:11:00,
2013-07-22 22:22:00,68.0,60.0,-100.00,North,355,2.0,3.0,75,-99.99,,,-99.99,,2013-07-23 05:22:00,
2013-07-22 22:33:00,68.0,60.0,-100.00,North,1,3.0,5.0,75,-99.99,,,-99.99,,2013-07-23 05:33:00,
2013-07-22 22:43:00,67.0,60.0,-100.00,NW,313,2.0,5.0,77,-99.99,,,-99.99,,2013-07-23 05:43:00,
2013-07-22 22:52:00,67.0,60.0,-100.00,NW,313,2.0,5.0,77,-99.99,,,-99.99,,2013-07-23 05:52:00,
2013-07-22 23:01:00,67.0,59.0,-100.00,ESE,108,1.0,3.0,76,-99.99,,,-99.99,,2013-07-23 06:01:00,
2013-07-22 23:21:00,66.0,60.0,-100.00,WSW,254,0.0,2.0,80,-99.99,,,-99.99,,2013-07-23 06:21:00,
2013-07-22 23:52:00,66.0,60.0,-100.00,North,353,2.0,4.0,81,-99.99,,,-99.99,,2013-07-23 06:52:00,